• Join FlightAware (Why Join?)
  • Login
  • US Flag 
11:56PM EDT


 

Airport Tracker/Info


-or-


 

Live Flight TrackerFlight Track Log ✈ N53NW ✈ 03-Sep-2013 ✈ KJAX - KMLB

Flight Track Log - Related Links

Times and Time Zones

All times are in EDT time to prevent confusion due to time zone crossing. See the N53NW flight status page for this flight to view local times or setup timezone preferences in your user account.

Time Position Orientation Groundspeed Altitude Reporting Facility
EDT Latitude Longitude Course Direction KTS MPH feet Rate Location/Type
08:18AM 30.4947 -81.6992 210° Southwest 174 200 600  Level Jacksonville Center
08:19AM 30.4325 -81.7411 210° Southwest 247 284 3,200 2,400 Climbing Jacksonville Center
08:20AM 30.3653 -81.7008 153° Southeast 267 307 6,200 2,820 Climbing Jacksonville Center
08:22AM 30.2933 -81.6081 132° Southeast 292 336 10,500 2,760 Climbing Jacksonville Center
08:23AM 30.2489 -81.5339 125° Southeast 292 336 13,400 2,700 Climbing Jacksonville Center
08:24AM 30.2022 -81.4600 126° Southeast 287 330 15,900 1,740 Climbing Jacksonville Center
08:25AM 30.1531 -81.3792 125° Southeast 294 338 16,900 480 Climbing Jacksonville Center
08:26AM 30.0978 -81.2936 127° Southeast 314 361 16,900  Level Jacksonville Center
08:27AM 30.0403 -81.2058 127° Southeast 328 377 16,900  Level Jacksonville Center
08:28AM 29.9522 -81.1808 166° South 320 368 16,900  Level Jacksonville Center
08:29AM 29.8603 -81.1731 176° South 317 365 16,900  Level Jacksonville Center
08:30AM 29.7642 -81.1653 176° South 330 380 16,900  Level Jacksonville Center
08:31AM 29.6700 -81.1547 174° South 341 392 16,900  Level Jacksonville Center
08:32AM 29.5781 -81.1444 174° South 341 392 16,900  Level Jacksonville Center
08:33AM 29.4842 -81.1367 176° South 341 392 16,900 -600 Level Jacksonville Center
08:34AM 29.3919 -81.1239 173° South 341 392 15,700 -1,020 Descending Jacksonville Center
08:35AM 29.3042 -81.1161 176° South 334 384 14,900 -360 Descending Jacksonville Center
08:36AM 29.2186 -81.1081 175° South 322 371 15,000  Climbing Jacksonville Center
08:37AM 29.1331 -81.1025 177° South 322 371 15,000  Level Jacksonville Center
08:38AM 29.0431 -81.0922 174° South 322 371 15,000  Level Jacksonville Center
08:39AM 28.9553 -81.0867 177° South 322 371 15,000 -960 Level Jacksonville Center
08:40AM 28.8675 -81.0811 177° South 322 371 13,100 -1,980 Descending Jacksonville Center
08:41AM 28.7819 -81.0758 177° South 322 371 11,100 -2,040 Descending Jacksonville Center
08:42AM 28.6964 -81.0703 177° South 312 359 9,100 -2,040 Descending Jacksonville Center
08:43AM 28.6208 -81.0572 171° South 299 344 7,100 -2,040 Descending Jacksonville Center
08:44AM 28.5494 -81.0256 159° South 281 323 5,100 -1,140 Descending Jacksonville Center
08:45AM 28.4883 -80.9700 141° Southeast 271 312 4,900 -60 Descending Jacksonville Center
08:46AM 28.4000 -80.8833 139° Southeast 275 316 5,000  Climbing Orlando TRACON
08:47AM 28.3333 -80.8333 147° Southeast 277 319 5,000 -360 Level Orlando TRACON
08:48AM 28.2667 -80.7833 147° Southeast 272 313 4,300 -540 Descending Orlando TRACON
08:49AM 28.2167 -80.7500 150° Southeast 253 291 4,000 -600 Descending Orlando TRACON
08:50AM 28.1500 -80.7000 147° Southeast 262 302 3,200 -1,020 Descending Orlando TRACON
08:51AM 28.0833 -80.6667 156° South 232 267 2,000 -780 Descending Orlando TRACON
08:52AM 28.0667 -80.6167 111° Southeast 169 194 1,600 -540 Descending Orlando TRACON
08:53AM 28.1000 -80.5833 41° Northeast 136 157 900 -660 Descending Orlando TRACON
08:54AM 28.1000 -80.6167 270° West 102 117 400 -600 Descending Orlando TRACON
08:56AM 28.1000 -80.6333 336° Northwest  Level FlightAware Approximate
09:03AM 28.1028 -80.6453 336° Northwest  Level Estimated
09:04AM 28.1028 -80.6453 336° Northwest  Level Estimated
09:05AM 28.1028 -80.6453 336° Northwest  Level Estimated